Home   Weather   Stade   Past weeks

Flag for Germany Past Weather in Stade, Lower Saxony, Germany — Yesterday and Last 2 Weeks

Now
46 °F

Drizzle. Fog.


Feels Like: 41 °F
Forecast: 42 / 46 °F
Wind: 13 mph from West

Location: Hamburg-Finkenwerder

Current Time: Dec 9, 2016 at 8:52:28 am

Latest Report: Dec 9, 2016 at 8:20 am


Visibility: 1 mi

Pressure: 30.18 "Hg

Humidity: 100%

Dew Point: 46 °F

Location of StadeLocation

Past Weather in Stade — Graph

°F

Stade Temperature Yesterday

Maximum temperature yesterday: 48 °F (at 1:50 pm)
Minimum temperature yesterday: 43 °F (at 5:50 am)
Average temperature yesterday: 46 °F

High & Low Weather Summary for the Past Weeks

 TemperatureHumidityPressure
High48 °F (Dec 1, 1:50 pm)100% (Nov 24, 8:50 pm)30.57 "Hg (Nov 24, 8:50 pm)
Low21 °F (Dec 5, 7:20 am)56% (Nov 28, 1:50 pm)29.92 "Hg (Dec 1, 7:20 pm)
Average37 °F85%30.29 "Hg
* Reported Nov 24 7:20 am — Dec 9 7:20 am, Stade, Weather by CustomWeather, © 2016

Note: Actual official high and low records may vary slightly from our data, if they occured in-between our weather recording intervals... More about our weather records

Advertising

Stade Weather History for the Previous 24 Hours

Scroll right to see more
 ConditionsComfort  
Time TempWeatherWind HumidityBarometerVisibility
7:20 am
Fri, Dec 9
46 °FDrizzle. Fog.10 mph100%30.18 "Hg1 mi
6:50 am46 °FDrizzle. Fog.9 mph100%30.18 "Hg1 mi
6:20 am46 °FDrizzle. Fog.9 mph100%30.18 "Hg1 mi
9:20 pm
Thu, Dec 8
46 °FOvercast.10 mph66%30.21 "HgN/A
8:50 pm46 °FOvercast.9 mph66%30.21 "HgN/A
8:20 pm46 °FPassing clouds.10 mph66%30.18 "HgN/A
7:50 pm46 °FPassing clouds.10 mph71%30.18 "HgN/A
7:20 pm46 °FOvercast.10 mph71%30.18 "HgN/A
6:50 pm46 °FPassing clouds.12 mph71%30.18 "HgN/A
6:20 pm46 °FOvercast.9 mph71%30.21 "HgN/A
5:50 pm46 °FOvercast.8 mph76%30.18 "HgN/A
5:20 pm46 °FOvercast.7 mph76%30.18 "HgN/A
4:50 pm48 °FOvercast.9 mph71%30.21 "HgN/A
4:20 pm48 °FOvercast.10 mph76%30.21 "HgN/A
3:50 pm48 °FOvercast.10 mph82%30.21 "HgN/A
3:20 pm46 °FDrizzle. Partly sunny.13 mph87%30.21 "Hg4 mi
2:50 pm48 °FLight rain. Overcast.13 mph76%30.21 "Hg6 mi
2:20 pm48 °FOvercast.10 mph76%30.21 "HgN/A
1:50 pm48 °FPartly sunny.12 mph76%30.21 "HgN/A
12:50 pm46 °FBroken clouds.12 mph76%30.21 "HgN/A
12:20 pm46 °FOvercast.12 mph76%30.21 "HgN/A
11:50 am46 °FOvercast.9 mph76%30.24 "HgN/A
11:20 am46 °FOvercast.9 mph71%30.24 "HgN/A
10:50 am46 °FPartly sunny.9 mph71%30.24 "HgN/A
10:20 am46 °FPartly sunny.10 mph71%30.24 "HgN/A
9:50 am46 °FPartly sunny.10 mph71%30.24 "HgN/A
9:20 am45 °FPartly sunny.10 mph76%30.24 "HgN/A
8:50 am45 °FBroken clouds.10 mph76%30.24 "HgN/A
8:20 am45 °FPassing clouds.12 mph76%30.24 "HgN/A
Weather by CustomWeather, © 2016

See weather overviewHow to use our weather pages